International Skating Union - Official Site

ISU World Single Distances Championships 2017
February 9-12,2017

Draw | Lap Times | Index

Referee: Dan  IMMERFALL  (USA)
Starter: Jan  ZWIER  (NED)
StartTime: EndTime: Air Temp: Ice Temp: Humidity:
19:41 20:06 15 ℃ -9 ℃ 34%
Result Team Pursuit Men
Rankings as of Feb 12 2017 8:48PM
Rank: No.: Team: Nation: Time: Behind:
Total 8
1 301 Netherlands (53) Jorrit Bergsma (54) Jan Blokhuijsen (55) Douwe de Vries (62) Patrick Roest NED NED 3:40.660.5 - 17.95 - (17.9)
1.0 - 31.15 - (13.1)
1.5 - 44.60 - (13.4)
2.0 - 57.80 - (13.1)
2.5 - 1:11.15 - (13.3)
3.0 - 1:24.28 - (13.1)
3.5 - 1:37.44 - (13.1)
4.0 - 1:50.83 - (13.3)
4.5 - 2:04.47 - (13.6)
5.0 - 2:18.18 - (13.7)
5.5 - 2:32.11 - (13.9)
6.0 - 2:45.85 - (13.7)
6.5 - 2:59.62 - (13.7)
7.0 - 3:13.53 - (13.9)
7.5 - 3:27.17 - (13.6)
8.0 - 3:40.66 - (13.4)
2 307 New Zealand (70) Shane Dobbin (71) Reyon Kay (72) Peter Michael NZL NZL 3:41.080.5 - 18.27 - (18.2)
1.0 - 31.80 - (13.5)
1.5 - 45.09 - (13.2)
2.0 - 58.49 - (13.3)
2.5 - 1:12.02 - (13.5)
3.0 - 1:25.39 - (13.3)
3.5 - 1:38.83 - (13.4)
4.0 - 1:52.31 - (13.4)
4.5 - 2:05.81 - (13.5)
5.0 - 2:19.31 - (13.5)
5.5 - 2:32.78 - (13.4)
6.0 - 2:46.17 - (13.3)
6.5 - 2:59.75 - (13.5)
7.0 - 3:13.39 - (13.6)
7.5 - 3:27.11 - (13.7)
8.0 - 3:41.08 - (13.9)
0.42
3 302 Norway (66) Sindre Henriksen (68) Simen Spieler Nilsen (69) Sverre Lunde Pedersen (67) Håvard Holmefjord Lorentzen NOR NOR 3:41.600.5 - 17.41 - (17.4)
1.0 - 30.73 - (13.3)
1.5 - 43.90 - (13.1)
2.0 - 57.31 - (13.4)
2.5 - 1:10.75 - (13.4)
3.0 - 1:24.35 - (13.5)
3.5 - 1:38.03 - (13.6)
4.0 - 1:51.35 - (13.3)
4.5 - 2:04.93 - (13.5)
5.0 - 2:18.75 - (13.8)
5.5 - 2:32.28 - (13.5)
6.0 - 2:45.84 - (13.5)
6.5 - 2:59.53 - (13.6)
7.0 - 3:13.47 - (13.9)
7.5 - 3:27.37 - (13.9)
8.0 - 3:41.60 - (14.2)
0.94
4 305 Canada (6) Jordan Belchos (7) Ted-Jan Bloemen (10) Benjamin Donnelly (14) Denny Morrison CAN CAN 3:41.680.5 - 18.04 - (18.0)
1.0 - 31.60 - (13.5)
1.5 - 45.08 - (13.4)
2.0 - 58.62 - (13.5)
2.5 - 1:12.07 - (13.4)
3.0 - 1:25.56 - (13.4)
3.5 - 1:39.15 - (13.5)
4.0 - 1:52.58 - (13.4)
4.5 - 2:06.10 - (13.5)
5.0 - 2:19.67 - (13.5)
5.5 - 2:33.33 - (13.6)
6.0 - 2:46.97 - (13.6)
6.5 - 3:00.59 - (13.6)
7.0 - 3:14.22 - (13.6)
7.5 - 3:27.93 - (13.7)
8.0 - 3:41.68 - (13.7)
1.02
5 303 Japan (38) Shota Nakamura (41) Ryosuke Tsuchiya (42) Shane Williamson (40) Takuro Oda JPN JPN 3:42.770.5 - 17.36 - (17.3)
1.0 - 30.60 - (13.2)
1.5 - 43.77 - (13.1)
2.0 - 57.15 - (13.3)
2.5 - 1:10.67 - (13.5)
3.0 - 1:24.35 - (13.6)
3.5 - 1:38.14 - (13.7)
4.0 - 1:51.61 - (13.4)
4.5 - 2:05.20 - (13.5)
5.0 - 2:19.04 - (13.8)
5.5 - 2:32.63 - (13.5)
6.0 - 2:46.46 - (13.8)
6.5 - 3:00.46 - (14.0)
7.0 - 3:14.55 - (14.0)
7.5 - 3:28.79 - (14.2)
8.0 - 3:42.77 - (13.9)
2.11
6 304 Italy (30) Andrea Giovannini (31) Michele Malfatti (33) Nicola Tumolero (32) Luca Stefani ITA ITA 3:43.720.5 - 17.85 - (17.8)
1.0 - 31.42 - (13.5)
1.5 - 44.56 - (13.1)
2.0 - 57.82 - (13.2)
2.5 - 1:11.24 - (13.4)
3.0 - 1:24.68 - (13.4)
3.5 - 1:38.45 - (13.7)
4.0 - 1:52.09 - (13.6)
4.5 - 2:06.04 - (13.9)
5.0 - 2:19.76 - (13.7)
5.5 - 2:33.50 - (13.7)
6.0 - 2:47.50 - (14.0)
6.5 - 3:01.60 - (14.0)
7.0 - 3:15.90 - (14.3)
7.5 - 3:29.80 - (13.9)
8.0 - 3:43.72 - (13.9)
3.06
7 308 Poland (73) Zbigniew Bródka (77) Konrad Niedzwiedzki (79) Jan Szymanski (81) Adrian Wielgat POL POL 3:44.790.5 - 17.59 - (17.5)
1.0 - 30.80 - (13.2)
1.5 - 44.09 - (13.2)
2.0 - 57.59 - (13.5)
2.5 - 1:11.46 - (13.8)
3.0 - 1:24.95 - (13.4)
3.5 - 1:38.46 - (13.5)
4.0 - 1:52.05 - (13.5)
4.5 - 2:05.80 - (13.7)
5.0 - 2:19.59 - (13.7)
5.5 - 2:33.71 - (14.1)
6.0 - 2:47.74 - (14.0)
6.5 - 3:01.79 - (14.0)
7.0 - 3:16.10 - (14.3)
7.5 - 3:30.41 - (14.3)
8.0 - 3:44.79 - (14.3)
4.13
8 306 Korea (47) Hyong-Jun Joo (50) Min Seok Kim (52) Seung-Hoon Lee (48) Jin-Su Kim KOR KOR DNF0.5 - 17.85 - (17.8)
1.0 - 31.31 - (13.4)
1.5 - 44.63 - (13.3)
2.0 - 58.02 - (13.3)
2.5 - 1:11.25 - (13.2)
3.0 - 1:24.48 - (13.2)
3.5 - 1:37.84 - (13.3)
4.0 - 1:50.90 - (13.0)
4.5 - 2:04.03 - (13.1)
5.0 - 2:17.25 - (13.2)
5.5 - 2:30.73 - (13.4)
6.0 - 2:44.31 - (13.5)